User: anonymous
Location: Unspecified
(0.0000°N, 0.0000°E)
Time: 18:46:41
(UTC+02:00)
Language:

AO-40 - Orbit

View from above orbital plane
View from above orbital plane
View from above satellite
View from above satellite

Ground track
Ground track

The orbit data is extracted from the following two-line orbital elements,

1 26609U 00072B   14293.83111159 -.00000376  00000-0  00000+0 0   605
2 26609 008.5490 026.9591 7944557 162.0833 265.3977 01.25586835 64144
Epoch (UTC): 20 October 2014 19:56:48
Eccentricity: 0.7944557
inclination: 8.5490°
perigee height: 1081 km
apogee height: 58740 km
right ascension of ascending node: 26.9591°
argument of perigee: 162.0833°
revolutions per day: 1.25586835
mean anomaly at epoch: 265.3977°
orbit number at epoch: 6414

The dashed part of the orbit path shows where the satellite is in the earth's shadow,  

DLR